Weather reports worldwide

Advertisment
Threave, United Kingdom (99090): temperature & dewpoint: 20.03.2019 19:00:00 - 26.03.2019 19:00:00 (GMT)Threave, United Kingdom (99090): temperature -20cm & temperature -100cm: 20.03.2019 19:00:00 - 26.03.2019 19:00:00 (GMT)Threave, United Kingdom (99090): precipitation: 20.03.2019 19:00:00 - 26.03.2019 19:00:00 (GMT)
Date & Time tt [°C] td [°C] tt -20cm [°C] tt -100cm [°C] rr [mm]
26.03.2019 19:00:00 8,7 5,0 - - 0,0
26.03.2019 18:00:00 9,1 4,8 - - 0,0
26.03.2019 17:00:00 9,4 4,4 - - 0,0
26.03.2019 16:00:00 9,4 4,5 - - 0,0
26.03.2019 15:00:00 9,6 3,9 - - 0,0
26.03.2019 14:00:00 10,0 4,1 - - 0,0
26.03.2019 13:00:00 9,7 3,5 - - 0,0
26.03.2019 12:00:00 9,6 2,9 - - 0,0
26.03.2019 11:00:00 9,3 2,7 - - 0,0
26.03.2019 10:00:00 8,7 2,8 - - 0,0
26.03.2019 09:00:00 7,9 3,3 7,4 7,4 0,0
26.03.2019 08:00:00 7,6 3,1 - - 0,0
26.03.2019 07:00:00 6,6 2,0 - - 0,0
26.03.2019 06:00:00 6,5 2,2 - - 0,0
26.03.2019 05:00:00 6,4 3,6 - - 0,0
26.03.2019 04:00:00 6,4 4,7 - - 0,0
26.03.2019 03:00:00 6,3 4,8 - - 0,0
26.03.2019 02:00:00 6,0 4,6 - - 0,0
26.03.2019 01:00:00 5,8 4,4 - - 0,0
26.03.2019 00:00:00 5,0 3,8 - - 0,0
25.03.2019 23:00:00 3,7 3,0 - - 0,0
25.03.2019 22:00:00 3,4 2,2 - - 0,0
25.03.2019 21:00:00 4,3 2,3 - - 0,0
25.03.2019 20:00:00 4,6 1,1 - - 0,0
25.03.2019 19:00:00 6,8 1,4 - - 0,0
25.03.2019 18:00:00 9,4 2,2 - - 0,0
25.03.2019 17:00:00 9,8 2,4 - - 0,0
25.03.2019 16:00:00 10,9 2,6 - - 0,0
25.03.2019 15:00:00 10,8 1,5 - - 0,0
25.03.2019 14:00:00 11,0 0,6 - - 0,0
25.03.2019 13:00:00 10,9 0,5 - - 0,0
25.03.2019 12:00:00 10,6 2,8 - - 0,0
25.03.2019 11:00:00 9,7 0,7 - - 0,0
25.03.2019 10:00:00 9,2 2,4 - - 0,0
25.03.2019 09:00:00 6,4 1,1 7,5 7,4 0,0
25.03.2019 08:00:00 5,1 1,5 - - 0,0
25.03.2019 07:00:00 3,0 0,1 - - 0,0
25.03.2019 06:00:00 2,1 -0,6 - - 0,0
25.03.2019 05:00:00 2,8 0,0 - - 0,0
25.03.2019 04:00:00 2,6 -0,1 - - 0,0
25.03.2019 03:00:00 2,9 0,0 - - 0,0
25.03.2019 02:00:00 3,7 0,0 - - 0,0
25.03.2019 01:00:00 4,4 0,4 - - 0,0
25.03.2019 00:00:00 3,6 0,7 - - 0,0
24.03.2019 23:00:00 4,5 1,8 - - 0,0
24.03.2019 22:00:00 5,7 1,5 - - 0,0
24.03.2019 21:00:00 5,7 1,7 - - 0,0
24.03.2019 20:00:00 6,3 2,1 - - 0,2
24.03.2019 19:00:00 6,6 2,2 - - 0,2
24.03.2019 18:00:00 7,1 3,3 - - 0,0
24.03.2019 17:00:00 7,9 4,9 - - 0,6
24.03.2019 16:00:00 9,2 4,7 - - 0,2
24.03.2019 15:00:00 8,1 5,1 - - 0,0
24.03.2019 14:00:00 8,4 5,9 - - 0,8
24.03.2019 13:00:00 8,2 4,7 - - 0,0
24.03.2019 12:00:00 8,5 3,3 - - 0,0
24.03.2019 11:00:00 7,4 3,6 - - 0,0
24.03.2019 10:00:00 7,4 3,5 - - 0,0
24.03.2019 09:00:00 6,4 3,0 7,7 7,4 0,0
24.03.2019 08:00:00 5,5 2,3 - - 0,0
24.03.2019 07:00:00 4,3 2,1 - - 0,0
24.03.2019 06:00:00 4,7 2,2 - - 0,0
24.03.2019 05:00:00 4,7 2,0 - - 0,0
24.03.2019 04:00:00 5,1 2,5 - - 0,0
24.03.2019 03:00:00 4,8 3,1 - - 0,0
24.03.2019 02:00:00 4,6 3,3 - - 0,0
24.03.2019 01:00:00 4,2 3,5 - - 0,0
24.03.2019 00:00:00 4,4 3,0 - - 0,0
23.03.2019 23:00:00 5,3 3,2 - - 0,0
23.03.2019 22:00:00 5,3 3,2 - - 0,0
23.03.2019 21:00:00 5,5 3,7 - - 0,0
23.03.2019 20:00:00 5,4 3,3 - - 0,0
23.03.2019 19:00:00 5,2 2,3 - - 0,0
23.03.2019 18:00:00 7,0 2,6 - - 0,0
23.03.2019 17:00:00 8,0 0,4 - - 0,0
23.03.2019 16:00:00 8,5 0,7 - - 0,0
23.03.2019 15:00:00 9,2 1,2 - - 0,0
23.03.2019 14:00:00 9,3 2,4 - - 0,0
23.03.2019 13:00:00 8,9 1,6 - - 0,0
23.03.2019 12:00:00 8,4 2,4 - - 0,0
23.03.2019 11:00:00 6,5 2,3 - - 0,0
23.03.2019 10:00:00 7,1 2,8 - - 0,0
23.03.2019 09:00:00 5,7 2,5 7,7 7,2 0,0
23.03.2019 08:00:00 4,3 1,5 - - 0,0
23.03.2019 07:00:00 4,0 1,0 - - 0,0
23.03.2019 06:00:00 4,2 0,8 - - 0,0
23.03.2019 05:00:00 4,3 0,9 - - 0,0
23.03.2019 04:00:00 4,4 0,9 - - 0,0
23.03.2019 03:00:00 4,4 1,0 - - 0,0
23.03.2019 02:00:00 4,7 1,0 - - 0,0
23.03.2019 01:00:00 5,1 1,2 - - 0,0
23.03.2019 00:00:00 5,0 1,5 - - 0,0
22.03.2019 23:00:00 5,7 2,4 - - 0,0
22.03.2019 22:00:00 5,5 2,1 - - 0,0
22.03.2019 21:00:00 6,5 2,3 - - 0,0
22.03.2019 20:00:00 6,7 3,2 - - 0,0
22.03.2019 19:00:00 7,4 6,0 - - 0,0
22.03.2019 18:00:00 8,1 6,9 - - 0,0
22.03.2019 17:00:00 8,6 7,3 - - 0,0
22.03.2019 16:00:00 8,6 7,8 - - 0,0
22.03.2019 15:00:00 8,8 8,1 - - 1,0
22.03.2019 14:00:00 9,0 8,1 - - 1,4
22.03.2019 13:00:00 8,9 7,8 - - 1,2
22.03.2019 12:00:00 9,2 7,4 - - 0,0
22.03.2019 11:00:00 9,1 7,4 - - 0,0
22.03.2019 10:00:00 8,5 7,2 - - 0,0
22.03.2019 09:00:00 8,6 7,3 8,0 7,2 0,0
22.03.2019 08:00:00 8,7 7,6 - - 0,2
22.03.2019 07:00:00 8,5 8,0 - - 0,0
22.03.2019 06:00:00 8,3 8,1 - - 0,0
22.03.2019 05:00:00 8,2 7,9 - - 0,0
22.03.2019 04:00:00 8,1 7,8 - - 0,0
22.03.2019 03:00:00 7,9 7,7 - - 0,0
22.03.2019 02:00:00 7,7 7,3 - - 0,0
22.03.2019 01:00:00 7,6 7,1 - - 0,0
22.03.2019 00:00:00 7,7 7,3 - - 0,2
21.03.2019 23:00:00 8,0 7,4 - - 0,0
21.03.2019 22:00:00 8,7 7,5 - - 0,0
21.03.2019 21:00:00 8,8 7,2 - - 0,0
21.03.2019 20:00:00 9,1 7,3 - - 0,0
21.03.2019 19:00:00 8,9 7,6 - - 0,0
21.03.2019 18:00:00 9,5 7,9 - - 0,0
21.03.2019 17:00:00 10,8 8,4 - - 0,0
21.03.2019 16:00:00 11,5 8,6 - - 0,0
21.03.2019 15:00:00 12,7 9,7 - - 0,0
21.03.2019 14:00:00 12,0 9,4 - - 0,0
21.03.2019 13:00:00 11,5 9,1 - - 0,0
21.03.2019 12:00:00 11,0 9,1 - - 0,0
21.03.2019 11:00:00 11,3 9,1 - - 0,0
21.03.2019 10:00:00 11,1 9,4 - - 0,0
21.03.2019 09:00:00 11,0 9,3 7,5 7,0 0,0
21.03.2019 08:00:00 9,5 9,0 - - 0,0
21.03.2019 07:00:00 8,8 8,4 - - 0,0
21.03.2019 06:00:00 8,4 8,0 - - 0,0
21.03.2019 05:00:00 8,3 7,9 - - 0,0
21.03.2019 04:00:00 8,1 7,7 - - 0,0
21.03.2019 03:00:00 8,5 8,1 - - 0,0
21.03.2019 02:00:00 8,5 8,3 - - 0,0
21.03.2019 01:00:00 8,9 8,6 - - 0,0
21.03.2019 00:00:00 9,1 8,9 - - 0,0
20.03.2019 23:00:00 9,2 9,0 - - 0,0
20.03.2019 22:00:00 9,0 8,8 - - 0,0
20.03.2019 21:00:00 8,7 8,4 - - 0,4
20.03.2019 20:00:00 8,2 7,9 - - 0,0
20.03.2019 19:00:00 8,2 7,8 - - 0,0

tt = temperature
td = dewpoint
tt -20cm = temperature -20cm
tt -100cm = temperature -100cm
rr = precipitation

Next stations